| time (UTC) | temp F | wind direction | speed MPH | gust MPH | rain 1hr in | rain 24hr in | rain mn in | humidity % | barometer mb |
| 20260505224733 | 49 | 331 | 2.0 | 6.0 | 0.00 | 0.00 | 0.00 | 87 | 1009.7 |
| 20260505223732 | 49 | 350 | 2.0 | 9.0 | 0.00 | 0.00 | 0.00 | 87 | 1009.7 |
| 20260505222733 | 50 | 355 | 2.0 | 6.0 | 0.00 | 0.00 | 0.00 | 87 | 1009.7 |
| 20260505221743 | 50 | 12 | 1.0 | 6.0 | 0.00 | 0.00 | 0.00 | 86 | 1009.8 |
| 20260505221726 | 50 | 355 | 2.0 | 6.0 | 0.00 | 0.00 | 0.00 | 87 | 1009.8 |
| 20260505215721 | 50 | 343 | 1.0 | 5.0 | 0.00 | 0.00 | 0.00 | 86 | 1009.7 |
| 20260505214722 | 50 | 342 | 2.0 | 6.0 | 0.00 | 0.00 | 0.00 | 85 | 1009.7 |
| 20260505213722 | 50 | 46 | 2.0 | 5.0 | 0.00 | 0.00 | 0.00 | 85 | 1009.7 |
| 20260505212726 | 51 | 0 | 2.0 | 6.0 | 0.00 | 0.00 | 0.00 | 85 | 1009.6 |
| 20260505211727 | 51 | 9 | 2.0 | 10.0 | 0.00 | 0.00 | 0.00 | 85 | 1009.6 |
| 20260505210728 | 51 | 319 | 2.0 | 8.0 | 0.00 | 0.00 | 0.00 | 85 | 1009.6 |
| 20260505205721 | 51 | 5 | 2.0 | 6.0 | 0.00 | 0.00 | 0.00 | 85 | 1009.6 |
| 20260505205113 | 51 | 336 | 2.0 | 8.0 | 0.00 | 0.00 | 0.00 | 85 | 1009.6 |
| 20260505204751 | 51 | 5 | 2.0 | 8.0 | 0.00 | 0.00 | 0.00 | 85 | 1009.6 |
| 20260505202719 | 51 | 22 | 2.0 | 11.0 | 0.00 | 0.00 | 0.00 | 84 | 1009.6 |
| 20260505201732 | 51 | 18 | 3.0 | 11.0 | 0.00 | 0.00 | 0.00 | 84 | 1009.5 |
| 20260505200721 | 51 | 28 | 4.0 | 12.0 | 0.00 | 0.00 | 0.00 | 84 | 1009.5 |
| 20260505195927 | 52 | 334 | 3.0 | 9.0 | 0.00 | 0.00 | 0.00 | 83 | 1009.3 |
| 20260505195730 | 52 | 329 | 5.0 | 12.0 | 0.00 | 0.00 | 0.00 | 83 | 1009.4 |
| 20260505193926 | 52 | 5 | 3.0 | 12.0 | 0.00 | 0.00 | 0.00 | 82 | 1009.3 |
| 20260505193724 | 52 | 329 | 3.0 | 12.0 | 0.00 | 0.00 | 0.00 | 82 | 1009.3 |
| 20260505191714 | 53 | 49 | 3.0 | 12.0 | 0.00 | 0.00 | 0.00 | 81 | 1009.2 |
| 20260505190751 | 53 | 18 | 4.0 | 12.0 | 0.00 | 0.00 | 0.00 | 81 | 1009.3 |
| 20260505185712 | 53 | 317 | 4.0 | 13.0 | 0.00 | 0.00 | 0.00 | 80 | 1009.2 |
| 20260505184711 | 54 | 5 | 4.0 | 13.0 | 0.00 | 0.00 | 0.00 | 80 | 1009.1 |
| 20260505183720 | 54 | 349 | 3.0 | 10.0 | 0.00 | 0.00 | 0.00 | 79 | 1009.2 |
| 20260505182713 | 55 | 328 | 4.0 | 11.0 | 0.00 | 0.00 | 0.00 | 79 | 1009.1 |
| 20260505181711 | 55 | 23 | 5.0 | 13.0 | 0.00 | 0.00 | 0.00 | 78 | 1009.1 |
| 20260505180721 | 55 | 5 | 4.0 | 12.0 | 0.00 | 0.00 | 0.00 | 77 | 1009.0 |
| 20260505175718 | 56 | 335 | 5.0 | 12.0 | 0.00 | 0.00 | 0.00 | 77 | 1008.9 |
| 20260505174712 | 56 | 9 | 6.0 | 14.0 | 0.00 | 0.00 | 0.00 | 77 | 1009.0 |
| 20260505173718 | 57 | 327 | 5.0 | 13.0 | 0.00 | 0.00 | 0.00 | 76 | 1008.9 |
| 20260505172719 | 57 | 5 | 5.0 | 12.0 | 0.00 | 0.00 | 0.00 | 76 | 1009.0 |
| 20260505171718 | 57 | 30 | 3.0 | 9.0 | 0.00 | 0.00 | 0.00 | 75 | 1008.9 |
| 20260505170718 | 57 | 15 | 4.0 | 12.0 | 0.00 | 0.00 | 0.00 | 75 | 1008.9 |
| 20260505165741 | 57 | 22 | 5.0 | 14.0 | 0.00 | 0.00 | 0.00 | 74 | 1008.9 |
| 20260505164714 | 58 | 0 | 5.0 | 16.0 | 0.00 | 0.00 | 0.00 | 73 | 1008.9 |
| 20260505163720 | 58 | 25 | 7.0 | 16.0 | 0.00 | 0.00 | 0.00 | 73 | 1008.8 |
| 20260505163645 | 59 | 5 | 6.0 | 18.0 | 0.00 | 0.01 | 0.00 | 73 | 1008.7 |
| 20260505162845 | 58 | 317 | 6.0 | 19.0 | 0.00 | 0.00 | 0.00 | 73 | 1008.7 |
| 20260505161737 | 58 | 335 | 6.0 | 14.0 | 0.00 | 0.00 | 0.00 | 72 | 1008.6 |
| 20260505153021 | 59 | 347 | 5.0 | 15.0 | 0.00 | 0.22 | 0.00 | 75 | 1009.0 |
| 20260505152733 | 60 | 323 | 6.0 | 14.0 | 0.00 | 0.13 | 0.00 | 74 | 1008.9 |
| 20260505150737 | 60 | 9 | 6.0 | 16.0 | 0.00 | 0.23 | 0.00 | 74 | 1009.0 |
| 20260505124853 | 56 | 53 | 3.0 | 6.0 | 0.00 | 0.23 | 0.00 | 84 | 1009.9 |
| 20260505124717 | 56 | 43 | 2.0 | 6.0 | 0.00 | 0.23 | 0.00 | 83 | 1009.8 |
| 20260505122710 | 56 | 63 | 3.0 | 9.0 | 0.00 | 0.23 | 0.00 | 84 | 1010.0 |
| 20260505121707 | 57 | 65 | 2.0 | 5.0 | 0.00 | 0.23 | 0.00 | 83 | 1009.9 |
| 20260505120714 | 57 | 49 | 3.0 | 9.0 | 0.00 | 0.23 | 0.00 | 82 | 1010.0 |
| 20260505115707 | 57 | 50 | 4.0 | 11.0 | 0.00 | 0.23 | 0.00 | 81 | 1009.9 |
| 20260505115055 | 58 | 38 | 3.0 | 9.0 | 0.00 | 0.23 | 0.00 | 81 | 1010.2 |
| 20260505114719 | 58 | 65 | 3.0 | 10.0 | 0.00 | 0.23 | 0.00 | 81 | 1010.1 |
| 20260505113723 | 58 | 45 | 3.0 | 12.0 | 0.00 | 0.23 | 0.00 | 80 | 1010.2 |
| 20260505111830 | 57 | 36 | 3.0 | 10.0 | 0.00 | 0.23 | 0.00 | 82 | 1010.2 |
| 20260505111711 | 57 | 45 | 2.0 | 10.0 | 0.00 | 0.23 | 0.00 | 81 | 1010.1 |
| 20260505101658 | 55 | 58 | 3.0 | 6.0 | 0.00 | 0.23 | 0.00 | 85 | 1010.6 |
| 20260505100656 | 54 | 33 | 2.0 | 8.0 | 0.00 | 0.23 | 0.00 | 87 | 1010.6 |
| 20260505095656 | 53 | 45 | 2.0 | 6.0 | 0.00 | 0.23 | 0.00 | 88 | 1010.7 |
| 20260505094655 | 53 | 325 | 2.0 | 10.0 | 0.00 | 0.23 | 0.00 | 89 | 1010.7 |
| 20260505093704 | 53 | 327 | 2.0 | 9.0 | 0.00 | 0.23 | 0.00 | 89 | 1010.8 |
| 20260505092704 | 53 | 63 | 2.0 | 6.0 | 0.00 | 0.23 | 0.00 | 88 | 1010.8 |
| 20260505091703 | 53 | 22 | 2.0 | 9.0 | 0.00 | 0.23 | 0.00 | 88 | 1010.8 |
| 20260505090701 | 53 | 11 | 2.0 | 7.0 | 0.00 | 0.23 | 0.00 | 88 | 1010.9 |
| 20260505085656 | 52 | 37 | 2.0 | 7.0 | 0.00 | 0.23 | 0.00 | 88 | 1011.0 |
| 20260505084654 | 52 | 339 | 2.0 | 9.0 | 0.00 | 0.23 | 0.00 | 88 | 1010.9 |
| 20260505083656 | 52 | 304 | 3.0 | 11.0 | 0.00 | 0.23 | 0.00 | 88 | 1011.0 |
| 20260505082651 | 52 | 5 | 3.0 | 11.0 | 0.00 | 0.23 | 0.00 | 87 | 1010.9 |
| 20260505081653 | 52 | 59 | 2.0 | 12.0 | 0.00 | 0.23 | 0.00 | 88 | 1011.0 |
| 20260505080649 | 52 | 355 | 3.0 | 8.0 | 0.00 | 0.23 | 0.00 | 88 | 1010.9 |
| 20260505075652 | 52 | 43 | 2.0 | 9.0 | 0.00 | 0.23 | 0.00 | 88 | 1011.0 |
| 20260505074649 | 52 | 5 | 2.0 | 7.0 | 0.00 | 0.23 | 0.00 | 87 | 1010.9 |
| 20260505073652 | 52 | 355 | 2.0 | 6.0 | 0.00 | 0.23 | 0.00 | 88 | 1011.0 |
| 20260505073607 | 52 | 55 | 3.0 | 11.0 | 0.00 | 0.23 | 0.00 | 87 | 1011.1 |
| 20260505071645 | 52 | 0 | 3.0 | 9.0 | 0.00 | 0.23 | 0.00 | 88 | 1011.0 |
| 20260505070645 | 52 | 355 | 2.0 | 5.0 | 0.00 | 0.23 | 0.00 | 88 | 1011.0 |
| 20260505065645 | 52 | 55 | 2.0 | 8.0 | 0.00 | 0.23 | 0.00 | 88 | 1011.0 |
| 20260505064644 | 52 | 344 | 2.0 | 5.0 | 0.00 | 0.23 | 0.00 | 88 | 1011.1 |
| 20260505063648 | 52 | 355 | 2.0 | 10.0 | 0.00 | 0.23 | 0.00 | 89 | 1011.1 |
| 20260505062646 | 52 | 22 | 2.0 | 5.0 | 0.00 | 0.23 | 0.00 | 89 | 1011.0 |
| 20260505061647 | 52 | 0 | 2.0 | 9.0 | 0.00 | 0.23 | 0.00 | 89 | 1011.0 |
| 20260505060648 | 52 | 33 | 3.0 | 9.0 | 0.00 | 0.23 | 0.00 | 89 | 1010.9 |
| 20260505055644 | 51 | 340 | 3.0 | 11.0 | 0.00 | 0.23 | 0.00 | 89 | 1011.1 |
| 20260505054642 | 51 | 5 | 3.0 | 10.0 | 0.00 | 0.23 | 0.00 | 90 | 1011.1 |
| 20260505053943 | 51 | 20 | 3.0 | 10.0 | 0.00 | 0.23 | 0.00 | 90 | 1011.2 |
| 20260505053649 | 51 | 355 | 3.0 | 10.0 | 0.00 | 0.23 | 0.00 | 90 | 1011.2 |
| 20260505052447 | 52 | 0 | 2.0 | 10.0 | 0.00 | 0.23 | 0.00 | 93 | 1011.8 |
| 20260505051906 | 51 | 38 | 4.0 | 12.0 | 0.00 | 0.23 | 0.00 | 91 | 1011.6 |
| 20260505051739 | 52 | 5 | 1.0 | 5.0 | 0.00 | 0.23 | 0.00 | 91 | 1011.7 |
| 20260505051635 | 51 | 355 | 3.0 | 9.0 | 0.00 | 0.23 | 0.00 | 90 | 1011.2 |
| 20260505051415 | 52 | 67 | 2.0 | 6.0 | 0.00 | 0.23 | 0.00 | 92 | 1011.9 |
| 20260505051207 | 52 | 38 | 2.0 | 4.0 | 0.00 | 0.23 | 0.00 | 92 | 1011.8 |
| 20260505050649 | 51 | 0 | 4.0 | 11.0 | 0.00 | 0.23 | 0.00 | 90 | 1011.1 |
| 20260505033746 | 52 | 344 | 1.0 | 4.0 | 0.00 | 0.23 | 0.00 | 92 | 1011.8 |
| 20260505032152 | 52 | 48 | 2.0 | 5.0 | 0.00 | 0.23 | 0.00 | 93 | 1011.8 |
| 20260505032104 | 52 | 13 | 2.0 | 7.0 | 0.00 | 0.23 | 0.00 | 93 | 1011.9 |
| 20260505031718 | 52 | 55 | 2.0 | 9.0 | 0.00 | 0.23 | 0.00 | 92 | 1011.8 |
| 20260505030642 | 52 | 9 | 2.0 | 6.0 | 0.00 | 0.23 | 0.00 | 92 | 1011.8 |
| 20260505021640 | 52 | 24 | 2.0 | 7.0 | 0.00 | 0.23 | 0.00 | 93 | 1011.9 |
| 20260505020633 | 52 | 12 | 2.0 | 6.0 | 0.00 | 0.23 | 0.00 | 94 | 1011.8 |
| 20260505015930 | 52 | 326 | 3.0 | 8.0 | 0.00 | 0.23 | 0.00 | 94 | 1011.7 |
| 20260505015658 | 52 | 46 | 2.0 | 8.0 | 0.00 | 0.23 | 0.00 | 94 | 1011.7 |
| 20260505013625 | 52 | 351 | 3.0 | 8.0 | 0.00 | 0.23 | 0.00 | 94 | 1011.7 |
| 20260505012625 | 52 | 338 | 4.0 | 11.0 | 0.00 | 0.23 | 0.00 | 95 | 1011.7 |
| 20260505011816 | 52 | 311 | 4.0 | 9.0 | 0.00 | 0.23 | 0.00 | 95 | 1011.8 |
| 20260505011641 | 52 | 13 | 4.0 | 8.0 | 0.00 | 0.23 | 0.00 | 95 | 1011.7 |
| 20260505005806 | 52 | 319 | 4.0 | 10.0 | 0.00 | 0.23 | 0.00 | 95 | 1012.1 |
| 20260505005640 | 52 | 348 | 3.0 | 10.0 | 0.00 | 0.23 | 0.00 | 95 | 1011.9 |
| 20260505004219 | 52 | 19 | 3.0 | 11.0 | 0.00 | 0.23 | 0.00 | 95 | 1012.4 |
| 20260505004126 | 52 | 346 | 3.0 | 9.0 | 0.00 | 0.23 | 0.00 | 95 | 1012.4 |
| 20260505003715 | 52 | 349 | 4.0 | 9.0 | 0.00 | 0.23 | 0.00 | 95 | 1012.2 |
| 20260505000637 | 52 | 336 | 4.0 | 11.0 | 0.00 | 0.23 | 0.00 | 95 | 1012.4 |
| 20260504235812 | 52 | 15 | 4.0 | 13.0 | 0.00 | 0.23 | 0.00 | 95 | 1012.5 |
| 20260504235638 | 52 | 355 | 4.0 | 12.0 | 0.00 | 0.23 | 0.00 | 95 | 1012.5 |
| 20260504233648 | 52 | 13 | 3.0 | 10.0 | 0.00 | 0.23 | 0.00 | 95 | 1012.6 |
| 20260504232627 | 52 | 56 | 3.0 | 11.0 | 0.00 | 0.23 | 0.00 | 96 | 1012.8 |
| 20260504231709 | 52 | 16 | 3.0 | 9.0 | 0.00 | 0.23 | 0.00 | 96 | 1012.7 |